Location: Barruelo
(41.2448°N, 3.8231°W)
Time: 04:52:25
(UTC+00:00)

Cosmos 2266 Rocket - Pass Details

Date: 11 December 2025
Orbit: 933 x 1007 km, 82.9° (Epoch: 13 January)

Event Time Altitude Azimuth Distance (km) Brightness Sun altitude
Rises 17:40:18 0° 352° (N) 3,648 6.9 -9.9°
Reaches altitude 10° 17:42:50 10° 353° (N) 2,688 6.2 -10.4°
Maximum altitude 17:48:58 86° 82° (E) 950 3.9 -11.5°
Drops below altitude 10° 17:55:00 10° 173° (S) 2,636 6.4 -12.5°
Sets 17:57:27 0° 173° (S) 3,573 7.1 -12.9°
